Location: Anan
(43.3550°N, 0.8171°E)
Time: 19:46:03
(UTC+00:00)

Cosmos 2322 Rocket - Pass Details

Date: 14 May 2026
Orbit: 831 x 850 km, 71.0° (Epoch: 6 June)

Event Time Altitude Azimuth Distance (km) Brightness Sun altitude
Rises 20:49:55 0° 341° (NNW) 3,405 6.6 -15.0°
Reaches altitude 10° 20:52:37 10° 351° (N) 2,470 5.5 -15.3°
Maximum altitude 20:57:44 34° 56° (NE) 1,367 3.2 -16.0°
Enters shadow 21:00:47 21° 106° (ESE) 1,835 3.5 -16.4°
